Montpelier, VT

11:34 AM EDT on July 24, 2017 (GMT -0400)
Knapp State

Weather History for KMPV - March, 2013

Change the Weather History Date:

Thursday, March 21, 2013

  Actual Average Record
Temperature  
Mean Temperature 23 °F 31 °F  
Max Temperature 32 °F 41 °F 80 °F (2012)
Min Temperature 14 °F 21 °F -3 °F (1988)
Degree Days  
Heating Degree Days 42 34  
Month to date heating degree days 731 800  
Since 1 July heating degree days 6280 6708  
Cooling Degree Days 0 0  
Month to date cooling degree days 0 0  
Year to date cooling degree days 0 0  
Moisture  
Dew Point 12 °F    
Average Humidity 65    
Maximum Humidity 88    
Minimum Humidity 42    
Precipitation  
Precipitation T in 0.08 in 1.02 in (1974)
Month to date precipitation 0.73 1.57  
Year to date precipitation 2.97 6.06  
Sea Level Pressure  
Sea Level Pressure 29.72 in    
Wind  
Wind Speed 5 mph (West)    
Max Wind Speed 12 mph    
Max Gust Speed 16 mph    
Visibility 10 miles    
Events Snow    
T = Trace of Precipitation, MM = Missing Value Source: NWS Daily Summary

Daily Weather History Graph

Daily Weather History Graph

Search for Another Location

Airport or City:

Trip Planner

Search our weather history database for the weather conditions in past years. The results will help you decide how hot, cold, wet, or windy it might be!

Date:

Astronomy

Mar. 21, 2013 Rise Set
Actual Time 6:51 AM EDT 7:04 PM EDT
Civil Twilight 6:22 AM EDT 7:33 PM EDT
Nautical Twilight 5:48 AM EDT 8:07 PM EDT
Astronomical Twilight 5:13 AM EDT 8:42 PM EDT
Moon 1:20 PM EDT (3/21) 3:21 AM EDT (3/21)
Length of Visible Light 13h 10m
Length of Day
12h 12m
Waxing Gibbous, 68% of the Moon is Illuminated
Mar 21
Waxing Gibbous
Mar 27
Full
Apr 3
Last Quarter
Apr 10
New
Apr 18
First Quarter

Hourly Weather History & Observations

Time (EDT) Temp. Windchill Dew Point Humidity Pressure Visibility Wind Dir Wind Speed Gust Speed Precip Events Conditions
12:51 AM 21.9 °F 17.2 °F 12.0 °F 66% 29.76 in 10.0 mi Variable 3.5 mph - N/A   Scattered Clouds
1:51 AM 19.9 °F - 12.0 °F 71% 29.77 in 10.0 mi Calm Calm - N/A   Partly Cloudy
2:51 AM 21.9 °F 13.4 °F 12.9 °F 68% 29.76 in 10.0 mi SW 6.9 mph - N/A   Partly Cloudy
3:51 AM 19.0 °F 13.9 °F 12.0 °F 74% 29.75 in 10.0 mi Variable 3.5 mph - N/A   Clear
5:51 AM 18.0 °F 11.1 °F 10.9 °F 74% 29.76 in 10.0 mi South 4.6 mph - N/A   Scattered Clouds
6:51 AM 19.0 °F 11.1 °F 12.9 °F 77% 29.77 in 10.0 mi SSW 5.8 mph - N/A   Scattered Clouds
7:51 AM 15.8 °F 10.2 °F 12.2 °F 86% 29.70 in 10.0 mi NE 3.5 mph - N/A   Clear
8:51 AM 23.0 °F 15.8 °F 12.0 °F 63% 29.77 in 10.0 mi SW 5.8 mph - N/A   Clear
9:51 AM 24.1 °F 18.2 °F 12.0 °F 60% 29.77 in 10.0 mi South 4.6 mph - N/A   Partly Cloudy
10:30 AM 26.6 °F 17.5 °F 14.0 °F 59% 29.71 in 1.5 mi WSW 9.2 mph - 0.00 in Snow Light Snow
10:40 AM 26.6 °F 19.1 °F 12.2 °F 55% 29.71 in 5.0 mi WNW 6.9 mph - 0.00 in   Haze
10:51 AM 26.1 °F 19.4 °F 12.0 °F 55% 29.76 in 10.0 mi West 5.8 mph - 0.00 in   Scattered Clouds
11:51 AM 27.0 °F 23.0 °F 10.0 °F 49% 29.75 in 10.0 mi WSW 3.5 mph - N/A   Partly Cloudy
12:51 PM 28.9 °F 23.9 °F 9.0 °F 43% 29.72 in 10.0 mi South 4.6 mph - N/A   Partly Cloudy
1:51 PM 30.0 °F 25.2 °F 10.0 °F 43% 29.70 in 10.0 mi NNW 4.6 mph - N/A   Mostly Cloudy
2:51 PM 30.2 °F 24.3 °F 10.4 °F 44% 29.63 in 10.0 mi WNW 5.8 mph - N/A   Overcast
3:51 PM 30.9 °F 24.3 °F 10.9 °F 43% 29.67 in 10.0 mi Variable 6.9 mph - N/A   Mostly Cloudy
4:51 PM 30.9 °F 24.3 °F 12.0 °F 46% 29.67 in 10.0 mi NNE 6.9 mph - N/A   Overcast
5:51 PM 30.0 °F 23.2 °F 10.9 °F 45% 29.68 in 10.0 mi WNW 6.9 mph - N/A   Overcast
6:51 PM 28.0 °F 24.2 °F 10.9 °F 49% 29.69 in 10.0 mi NW 3.5 mph - N/A   Mostly Cloudy
7:51 PM 26.1 °F 21.9 °F 15.1 °F 63% 29.71 in 10.0 mi NW 3.5 mph - N/A   Partly Cloudy
8:51 PM 26.1 °F 21.9 °F 16.0 °F 66% 29.70 in 10.0 mi WNW 3.5 mph - N/A   Overcast
9:51 PM 24.1 °F - 16.0 °F 71% 29.71 in 10.0 mi Calm Calm - N/A   Partly Cloudy
10:51 PM 23.0 °F 13.1 °F 16.0 °F 74% 29.70 in 10.0 mi NW 9.2 mph - N/A   Clear
11:51 PM 21.9 °F 13.4 °F 17.1 °F 82% 29.70 in 10.0 mi WNW 6.9 mph - N/A   Clear